sat.trackr.live / text

‹ back to catalog

YAOGAN-36 01A

NORAD 53943 · 2022-120A

PAYLOAD ACTIVE UNKNOWN

§ Identity

Operator
Country
PRC
Launch date
2022-09-26
Launch site
XICLF
Launch vehicle
Mass (kg)
RCS (m²)

External: N2YO · Heavens-Above · Gunter

§ Orbital elements

Epoch: 2026-05-25T04:56:12.290784Z

Period
94.53 min
Inclination
34.9916°
Eccentricity
0.0003989
Mean motion
15.23318681 rev/d
Perigee alt
493.1 km
Apogee alt
498.6 km
Semi-major
6,874.0 km
B*
3.0977e-4
RAAN
69.4377°
Arg perigee
165.3422°
Mean anomaly
194.7408°
Rev number
20,380

§ Raw data

YAOGAN-36 01A1 53943U 22120A   26145.20569781  .00007505  00000+0  30977-3 0  99922 53943  34.9916  69.4377 0003989 165.3422 194.7408 15.23318681203800

JSON: /api/v1/satellites/53943 · /tle

For live sub-satellite position, see the globe view (requires WebGL).

§ Visibility from observer

Set your observer location to see the next 7 days of passes ≥ 10°. The values pass through the URL so the page stays shareable.

No JS? Fill the form by hand. The geolocation button needs JavaScript.